Location: Copeville
(33.0796°N, 96.4155°W)
Time: 19:52:45
(UTC+00:00)

NOAA 19 - Pass Details

Date: 01 April 2023
Orbit: 840 x 859 km, 99.1° (Epoch: 31 May)

Event Time Altitude Azimuth Distance (km) Brightness Sun altitude
Exits shadow 01:25:25 - 123° (ESE) 2,552 7.1 -9.2°
Reaches altitude 10° 01:25:41 10° 121° (ESE) 2,466 7.0 -9.2°
Maximum altitude 01:30:03 25° 68° (ENE) 1,635 6.3 -10.1°
Drops below altitude 10° 01:34:26 10° 14° (NNE) 2,468 7.6 -11.0°
Sets 01:37:10 0° 2° (N) 3,404 8.5 -11.6°
